Terug naar catalogus

STARLINK-32006

ActiefCommunicatieVLEO
NORAD 60029·PAYLOAD·🇺🇸 United States

Gelanceerd Jun 8, 2024 vanaf Cape Canaveral Space Force Station

Loading…

Volgende Passages (komende 24 uur)

TLE

VersSource: CelesTrak SupGP

Epoch: Sep 15, 2026, 02:19 UTC

1 60029C 24111P   26258.09701389  .00005059  00000+0  14945-3 0  2588
2 60029  53.1573 274.7118 0001178  89.3529  91.3422 15.34389694    10

Volg STARLINK-32006 in realtime met AllMySat

Download on the App Store